Location: Bronschhofen
(47.4788°N, 9.0353°E)
Time: 20:27:22
(UTC+00:00)

Cosmos 220 Rocket - Pass Details

Date: 20 May 2022
Orbit: 572 x 614 km, 74.0° (Epoch: 06 July)

Event Time Altitude Azimuth Distance (km) Brightness Sun altitude
Exits shadow 00:44:55 52° 173° (S) 723 4.0 -20.0°
Maximum altitude 00:45:50 71° 109° (ESE) 612 3.9 -19.9°
Drops below altitude 10° 00:50:00 10° 26° (NNE) 1,888 7.8 -19.6°
Sets 00:52:13 0° 25° (NNE) 2,790 9.1 -19.5°
